This is the latest recevied weather packets stored in our database for station/object W6MAF. If no packets are shown the sender has not sent any weather packets the latest 10 day(s).
| Time | Temp. | Humidity | Pressure | Rain* | Wind** | Luminosity | Snow |
|---|---|---|---|---|---|---|---|
| 1778035531 | 9.44° C | 51% | - | 0 mm | 3.58 m/s, 222° | - | - |
| 1778035234 | 9.44° C | 51% | - | 0 mm | 4.47 m/s, 228° | - | - |
| 1778034936 | 9.44° C | 50% | - | 0 mm | 4.47 m/s, 229° | - | - |
| 1778034638 | 9.44° C | 50% | - | 0 mm | 4.47 m/s, 225° | - | - |
| 1778034338 | 9.44° C | 49% | - | 0 mm | 4.92 m/s, 229° | - | - |
| 1778034040 | 9.44° C | 49% | - | 0 mm | 6.26 m/s, 225° | - | - |
| 1778033742 | 10° C | 49% | - | 0 mm | 4.47 m/s, 242° | - | - |
| 1778033445 | 10° C | 48% | - | 0 mm | 3.58 m/s, 228° | - | - |
| 1778033147 | 10° C | 48% | - | 0 mm | 4.47 m/s, 218° | - | - |
| 1778032849 | 10° C | 47% | - | 0 mm | 3.13 m/s, 211° | - | - |
| 1778032548 | 10.56° C | 46% | - | 0 mm | 4.92 m/s, 201° | - | - |
| 1778032251 | 10.56° C | 45% | - | 0 mm | 4.92 m/s, 203° | - | - |
| 1778031953 | 11.11° C | 44% | - | 0 mm | 4.02 m/s, 231° | - | - |
| 1778031776 | 11.11° C | 44% | - | 0 mm | 2.68 m/s, 208° | - | - |
| 1778031656 | 11.11° C | 44% | - | 0 mm | 2.68 m/s, 208° | - | - |
| 1778031358 | 11.11° C | 44% | - | 0 mm | 4.47 m/s, 232° | - | - |
| 1778031060 | 11.67° C | 43% | - | 0 mm | 3.13 m/s, 233° | - | - |
| 1778030759 | 11.67° C | 42% | - | 0 mm | 4.02 m/s, 221° | - | - |
| 1778030506 | 12.22° C | 40% | - | 0 mm | 4.02 m/s, 215° | - | - |
| 1778030462 | 12.22° C | 40% | - | 0 mm | 4.02 m/s, 215° | - | - |
| 1778030164 | 12.78° C | 40% | - | 0 mm | 4.02 m/s, 221° | - | - |
| 1778029903 | 12.78° C | 39% | - | 0 mm | 4.02 m/s, 222° | - | - |
| 1778029866 | 12.78° C | 39% | - | 0 mm | 4.02 m/s, 222° | - | - |
| 1778029570 | 12.78° C | 38% | - | 0 mm | 5.36 m/s, 203° | - | - |
| 1778029271 | 12.78° C | 38% | - | 0 mm | 4.47 m/s, 226° | - | - |
* Rain latest hour (hover to see other rain measurements)
** Current wind speed in m/s (hover to see current wind gust speed)